Track STARLINK-2205 now! 10-day predictions STARLINK-2205 is classified as:
1 47419U 21006G 21111.42881326 .00000861 00000-0 50588-4 0 9999 2 47419 97.4984 173.8976 0009201 336.4746 23.6063 15.14315325 13446